CAPE
2099 1993 1838 1908 1969 1734 1778 1761 2026 1741 1780 2409 2167 2180 1984 1759 1884 2187 2857 1892 944 1238 1381 1102 794 939 699 806 1001 1323 1170 1590 1993 2486 2401 2332 2493 2694 2622 2604 2622 2368 2260 2392 2322 2059 2044 2009 1895 1823 2073 1778 1836 1833 1885 1961 1710 1996 2176 2190 2111 2293 2167 2315 2382 2509 2280 2498 2618 2345 2263 2136 1985 2054 2173 2305 1911 1980 2048 1996 1830 1785 1542 1516 1471
1930 2202 2142 2278 2056 1545 1603 1564 1664 1515 1639 1926 1682 1758 1572 1508 1642 1981 896 1533 1235 1201 1548 828 636 713 894 900 808 834 908 849 922 2217 2465 1587 2001 2744 2691 2655 2499 2328 2337 2010 2429 2337 2260 2249 2153 1983 2022 2101 2051 2021 1953 2005 2026 2061 2093 2342 2262 2424 2432 2495 2611 2684 2583 2418 2440 2716 2278 2275 2220 2382 2298 2442 2440 2211 2214 2236 2233 2220 2200 2194 1925
1935 2270 3067 3804 2946 2191 1494 1916 1855 1892 2098 1810 1835 1771 1399 1390 2501 1919 1873 2274 1684 1176 1458 948 1012 844 940 764 860 1018 1142 999 897 1116 1543 1683 1886 2450 2668 2751 2831 2493 2557 2513 2035 2517 2456 2483 2530 2323 2534 2561 2430 2276 2414 2444 2590 2506 2545 2450 2659 2718 2729 2788 2847 2856 2944 2932 2882 2872 2963 2826 2772 2514 2361 2492 2441 2267 2593 2608 2387 2365 2535 2503 2466
2480 2518 2770 2192 1906 1702 1130 1169 1108 1502 1569 1626 1355 1476 1280 1294 2190 3180 1607 1938 1884 1779 1703 1327 1169 752 858 885 1046 1192 1529 1169 512 594 1368 2062 1716 2034 2455 2597 3017 3013 2722 2891 2728 2758 2620 2779 2757 2929 2689 2767 2859 2964 2797 2859 2795 2746 2966 2929 3037 3049 3060 3018 3114 3272 3368 3312 3313 3300 3304 3372 3313 3003 2722 2563 2640 2683 2686 2756 2804 2859 2920 2963 2772
2661 2248 1804 1538 1717 1448 976 903 1200 1731 1120 1107 1051 1156 1292 2434 2776 2415 2985 2412 2156 1484 1372 554 838 1088 1155 654 71 281 1004 1265 1133 1058 1321 1821 2592 2422 2367 2222 2477 2893 2968 3082 3100 2645 2935 3147 3014 3053 3174 3157 3066 3303 3362 3320 3248 3190 3279 3476 3442 3427 3472 3455 3430 3555 3615 3685 3668 3696 3634 3544 3615 3437 3064 2902 2819 2773 2781 2903 3010 3150 3232 3310 3287
2427 1999 1650 1260 915 952 1300 1407 1452 1789 1576 1408 1480 2463 2919 2425 1996 1752 1528 2382 1715 1531 1513 899 1032 1483 699 946 1032 1124 1146 1139 1209 1497 1674 1416 2123 2783 2848 2907 2694 2508 2756 2994 3234 3453 3394 3201 3282 3289 3250 3217 3204 3336 3418 3478 3483 3692 3761 3778 3858 3845 3884 3943 4006 3939 4011 4000 3893 3896 3959 3907 3862 3582 3231 3044 2882 3010 3186 3240 3200 3361 3243 3473 3634
3086 2523 2619 1410 1945 2915 2537 2799 3228 3198 3448 3710 3424 3322 3335 3202 3812 3122 1681 1779 909 1417 916 238 712 1030 1634 1740 1073 1102 1135 1108 892 1274 1692 1948 2524 2062 2816 3182 3128 2839 2756 2648 3148 3543 3290 3316 3407 3278 3218 3216 3396 3486 3649 3839 3950 4034 4148 4169 4212 4176 4156 4173 4249 4365 4287 4377 4448 4357 4340 4284 3940 3515 3111 3122 3165 3290 3449 3537 3533 3695 3829 3914 3890
4055 3934 4022 3237 2523 2619 3290 3903 4334 4868 4642 4910 3342 3305 2961 5040 3290 2883 3215 1016 1745 572 1410 1542 832 764 1016 761 1196 1498 1614 1296 1354 1058 1574 1396 1845 2248 2236 3664 3194 3774 3569 3263 2861 3268 3786 3811 3759 3679 3718 3774 3794 3810 3871 4039 4348 4399 4337 4484 4621 4615 4526 4548 4522 4563 4674 4749 4708 4617 4572 4427 4107 3677 3560 3462 3454 3890 3832 3933 4032 4040 3968 3907 3940
3878 3999 4463 3493 2568 2446 3286 3600 3561 4150 4368 3779 3236 4118 2661 2543 3513 3049 3830 3424 2262 608 569 792 703 944 1583 714 1256 2382 1440 3030 1067 1211 1264 1327 1587 1965 2514 2177 2486 3013 4222 3574 3760 3552 4153 3868 3914 4316 4306 4242 4207 4227 4120 4120 4345 4573 4685 4873 4854 4821 4876 4976 4886 4789 4773 4724 4745 4805 4730 4628 4274 3978 4102 4046 3920 3888 4020 4062 4024 4018 3947 3880 3817
4058 4566 4737 3548 2502 2586 2803 3895 4121 4644 3838 4312 3580 3640 2852 3634 4018 4342 4152 4318 3485 1482 1070 968 591 760 922 884 1097 681 1050 1218 1570 2715 2349 2188 2243 1990 1910 1873 2280 2930 2234 3484 3685 3604 3195 3757 4290 4576 4464 4594 4738 4818 4814 4680 4581 4726 4659 4672 4644 4670 4706 4773 4748 4867 4890 4880 4833 4825 4838 4794 4626 4624 4610 4565 4539 4377 4123 4080 3978 3846 3802 3821 3798
3739 3970 4233 3820 2730 3042 3696 3635 4020 5177 5224 3789 3033 3627 4231 3689 3718 4459 4830 3214 2999 1938 1720 1573 925 600 384 177 1242 1873 1505 1488 1638 2277 1087 1091 1512 1862 963 2686 1775 2370 2293 2427 2955 3469 3204 3423 3848 4072 3971 4292 5052 5389 5126 5115 4909 4814 4855 4623 4533 4558 4773 4746 4754 4766 4826 4997 4916 4879 4934 4956 4896 4878 4885 4772 4721 4540 4204 3985 3928 3876 3821 3793 3787
3609 3254 3555 4095 2840 3161 3477 2975 4008 4104 4392 3950 4034 3681 3866 3731 4271 4222 3577 3372 3116 2376 1356 1401 697 1129 1410 1406 2044 2021 1963 1916 1733 685 1045 1297 1815 1460 1421 1734 2147 1886 2571 2591 2169 2566 2919 3438 5028 4162 4256 4225 4036 5517 5607 5468 5229 5043 4758 4445 4215 4382 4518 4652 4752 4940 4957 5032 5249 5115 5084 5094 5020 4904 4794 4528 4448 4428 4204 3956 3890 3813 3770 3735 3642
3735 3678 3414 4220 3682 3298 4009 3638 3611 4207 4728 4717 3918 3438 3980 4334 5014 5763 4631 3638 2231 765 1579 2525 3922 3159 1793 1325 1901 1314 1616 2156 1923 826 749 769 1382 1438 1255 1396 1426 2195 2297 2742 2554 1907 1692 2097 2468 4725 4910 3894 4371 5185 5799 5594 5153 4535 4107 4181 4252 4499 4698 4997 5171 5072 5058 5223 5264 5243 5162 5161 5107 4872 4457 4436 4352 4440 4418 4012 3864 3728 3633 3572 3444
3532 4078 4405 4553 2966 3651 4019 4429 4509 4703 5065 3705 3562 3394 4260 3984 5026 6211 5405 3241 2281 1435 2094 3264 3483 1490 1884 2163 2444 2109 2359 2235 1940 876 938 700 547 827 959 1087 1037 1390 2419 2962 2514 2255 1459 1701 2237 2800 2958 5316 4274 4865 5553 5334 5318 4595 4654 4276 4224 4387 4749 4765 5048 5110 5211 5268 5287 5461 5317 5195 5069 4941 4719 4512 4442 4455 4482 4292 3974 3577 3582 3485 3305
3318 4061 3460 3664 3988 3964 4228 3800 4155 3899 4939 4507 4233 4513 5118 4442 4460 4984 5317 4547 2478 1863 3810 3157 2330 1850 1762 2467 1766 2445 2321 2363 1994 773 526 518 582 772 1035 679 1019 1602 2070 2198 2386 2187 804 697 1658 3515 3385 3278 3654 5038 5496 5246 4845 3813 3344 3206 3559 4088 4303 4768 5042 5122 5210 4955 5287 5372 5369 5136 4916 4695 4543 4413 4435 4279 4406 4457 4234 3868 3539 3418 3220
2682 2515 3276 3808 3731 4446 3862 3883 4896 5030 5299 5095 4516 3842 4863 4405 4105 4528 4431 3821 1352 1538 2134 3468 3092 4154 4322 3822 1457 1490 1316 815 1418 848 434 564 594 611 550 426 768 1614 1614 1342 1100 1299 1695 1278 1047 2264 3414 3190 3950 2026 3960 2558 4128 4472 4444 3217 2990 2976 3948 4590 4776 5390 5108 4739 4744 5288 5368 5455 5006 4774 4761 4717 4484 4329 4340 4388 4333 4128 3838 3624 3413
2618 3051 2911 3291 3802 4673 4614 4124 4645 4593 4798 4222 4690 3482 3951 3716 4656 4240 4797 4467 4670 1887 1982 2316 3528 3279 4979 4463 2913 3348 1770 1349 946 655 945 461 252 374 1062 569 630 1190 1776 797 1763 1578 950 1597 1465 2308 870 1482 2122 2948 2443 3958 4657 4885 4878 4811 4156 3446 3844 4638 4922 4792 4922 5186 5059 5038 5207 5225 5130 4977 4623 4626 4482 4443 4487 4488 4316 4031 3923 3842 3696
3285 3185 2965 3238 3386 3832 3774 3612 3572 4664 4461 4541 4407 4061 3753 3395 4327 4938 3853 4305 4516 4300 1845 2513 2537 3341 3744 4147 3533 2114 3295 2023 2491 2500 2770 1363 413 123 614 522 435 1801 1531 929 1533 1407 936 2068 1844 2368 1330 1283 2029 2855 2116 4028 6795 6399 5388 4971 4844 3556 3762 4261 4098 4052 4197 4708 5181 5364 5177 5098 5153 5105 4773 4573 4429 4334 4399 4524 4474 4437 4289 4046 3821
2586 3057 2751 3372 3460 3796 3861 3915 3560 3761 4652 5063 4108 2926 3284 3220 3560 4270 4292 5681 5521 5476 4316 2545 3286 3148 1948 1241 1261 1145 845 2869 2905 3329 2767 3217 2378 372 371 349 414 755 683 760 956 741 688 2061 1532 635 1406 1235 1796 1308 3234 2225 2841 4764 4976 3797 2666 3919 3636 3309 3925 4196 4236 4228 4608 4992 5136 5118 5210 5144 4995 4857 4755 4599 4402 4314 4312 4353 4324 4124 3931
2908 3504 3234 3113 3206 3673 4087 4106 4438 3075 3987 4367 3583 3328 4341 3972 4240 4410 5264 5560 5338 5682 4850 4149 4009 3680 2587 2986 1695 1091 1264 1484 1679 2396 3550 2894 1985 1701 1491 369 448 838 810 508 646 610 958 1008 883 1250 1848 1442 1738 2671 2343 2786 4451 4035 3517 3584 2706 3989 3747 4115 4514 4747 4877 4473 4432 4793 4947 5065 4957 4927 4732 4724 4618 4591 4428 4229 4245 4160 4120 4130 4017
3223 3219 3124 3197 3440 3453 3802 4154 3638 4318 4277 3637 3231 3299 3364 4247 4878 4729 4937 4974 4444 5318 5570 5002 3098 2939 4272 3682 3280 3178 1147 1107 1877 2764 3259 3490 2293 1824 1602 558 1140 275 987 453 504 578 775 1221 803 1070 1126 1785 2366 2376 1819 2749 5655 5388 4132 3506 3433 3910 3948 3804 3950 4614 5146 5178 4989 4955 4878 4602 4530 4523 4575 4510 4358 4399 4611 4518 4357 4303 4162 4116 4123
3408 3192 3533 3054 3301 3647 3183 3090 3069 2802 2900 3535 3509 3502 4224 4543 5126 4179 4326 5090 5822 5646 5200 4898 4630 4683 4141 5157 3340 4260 3396 3375 1999 1520 1980 2238 3874 1279 1137 1358 2300 1669 946 548 216 497 397 1290 1238 995 1146 1709 2273 1736 1967 3274 3923 3737 4008 3388 3152 3450 3887 3543 3635 4481 4970 5118 4983 4783 4721 4639 4651 4556 4512 4521 4528 4568 4558 4550 4584 4508 4276 4202 4255
2701 3479 3260 3175 3253 3629 2589 2631 2270 3535 4112 4110 4133 2959 2983 3268 3758 3810 4081 4571 5218 5024 4831 4906 5878 4896 3036 3825 4685 2133 4287 3469 3115 3445 2212 2015 2131 1278 729 921 801 937 2106 1560 685 764 827 1023 1121 1066 1485 1175 1952 3027 3585 3908 3398 2995 2678 2331 2323 2851 3146 3234 3531 3976 4096 4117 4360 4491 4498 4332 4222 4178 4306 4429 4388 4156 4318 4490 4483 4421 4383 4308 4206
2995 2748 2684 2238 3348 3400 3226 2926 4584 3819 3348 3538 4217 3089 3043 3773 4241 4902 4404 4965 4699 5812 4919 4225 3413 3933 3746 2446 2276 1750 2344 2856 1914 3912 3490 3398 3268 1557 1584 1941 1759 1002 928 1864 2040 932 1402 1004 1389 2197 3161 3710 4445 4939 4758 4738 4038 2983 2969 2954 2881 2904 3012 3445 3915 3844 3909 3930 3662 3552 3488 3613 3715 3812 3993 4108 4006 4088 4188 4132 4130 4309 4328 4327 4132
2952 2326 2044 2260 3696 3631 3564 4695 4304 4203 4930 5136 4553 3378 3699 4353 4928 3322 4398 3460 5380 4470 4810 3719 3025 3441 2925 2271 2482 3570 2007 1946 2112 2445 2531 3949 3116 3381 2107 1568 1307 1790 1754 1724 2469 1580 1637 1555 1676 2931 4190 3787 4189 4740 4713 4224 3708 3955 3272 2716 2545 2506 3096 3557 3840 3646 3552 3512 3331 3411 3520 3878 4231 3960 4094 4159 4292 4130 3880 3917 3902 3932 4047 4144 4169
2320 2886 2121 1997 2908 3196 3426 3963 4009 3757 4320 4084 4024 3857 4365 4562 4374 5078 3240 5105 5112 4172 3808 2919 3205 2662 2906 2722 2039 1621 2667 2624 2867 2105 2580 3967 4428 2199 2791 3352 2144 1354 2210 2460 2277 1640 2031 1884 1996 3981 3001 4166 3828 5233 4574 4018 2691 4178 3237 2951 2813 2312 2927 3456 3579 3082 3286 3395 3011 2866 3037 3426 3452 4026 3966 3980 4217 4154 3880 3918 3919 3990 3996 4017 4052
2784 3083 2938 3036 2950 3399 3446 3656 4102 4008 4042 4023 3358 3527 4339 4805 4111 4384 4774 4269 4318 3770 4137 3141 2632 2811 1812 3216 3532 1915 1843 1976 2699 2781 2612 2107 2919 2648 4485 4056 3262 2098 1947 2192 1344 926 1716 1906 1518 3381 3875 5755 4549 4424 4183 3496 2381 4464 3094 3350 4345 3323 2905 3337 3006 2890 3120 3235 2833 2616 2690 2749 3150 3278 3878 4214 3531 3635 3612 3772 3673 3621 3817 3872 3837
2997 3042 2697 2791 3091 3202 3538 3440 4275 3968 4138 4204 4197 3904 4050 3802 5264 4830 4736 3744 4829 3457 3640 3161 2218 2652 1768 3264 1837 1920 1757 2345 2347 2087 2604 2912 3068 3684 3268 4104 3823 3735 2782 2738 2480 1781 1067 1783 1936 2379 3064 2808 3449 3191 3469 3114 2228 1703 2618 3588 3128 6024 4037 2928 3270 3520 2902 2201 2230 2279 2280 2507 2635 3022 3355 3182 3140 3113 3298 3323 3187 3206 3285 3400 3427
3280 2413 2858 3397 3519 3438 3248 2868 4086 4179 4313 4279 3900 3932 4059 4008 4092 4604 4470 3685 4126 5150 3906 3823 3798 2013 2158 2346 3284 2981 2380 1808 1743 1705 2364 2850 3749 3559 3606 4720 4754 4018 3490 3254 3276 2404 2123 1250 928 3763 2791 3004 2962 3566 2769 2048 2255 1697 3080 2864 3232 2368 4205 3842 3754 2873 2172 1937 1795 1994 2122 2289 2462 2652 3029 3126 2680 2578 2562 2529 2592 2804 2841 2780 2936
2479 2341 2725 3129 3933 3781 3962 3687 3812 3898 3886 3566 3704 3995 4289 4143 4235 4626 4240 4966 5504 5736 4884 3768 3136 3476 3054 2909 2230 2794 2942 2506 2772 2502 4286 4635 4519 3946 4078 5247 4925 4770 4970 3363 3565 3220 2515 1716 870 2006 3651 4149 3581 3386 3037 2502 2898 1809 2880 2763 2544 2511 4349 3009 2148 2048 2015 1863 1704 2012 2160 2269 2450 2508 2476 2301 1758 1357 1591 1871 2546 2745 2543 2713 2834
3330 3323 3047 2838 4004 3719 4304 3678 4082 3891 4009 3678 3976 4181 4300 4532 4360 4645 4240 4892 4682 4450 5027 4251 3281 3114 3220 3028 2984 3338 3142 2245 3076 3076 3280 4866 4372 4171 4286 3703 3803 4279 4420 3761 3144 4098 2715 2343 2036 1506 1571 2487 2222 1945 1454 1302 1694 1827 2501 2768 2962 2482 1933 2137 2070 1983 1925 1901 1853 1919 2024 1836 1577 1472 1311 1086 945 1004 1236 1581 1851 1902 2739 2640 2604
2624 2706 2658 2710 3196 2931 3312 3139 3074 3096 3443 3410 3012 4047 4248 4170 3781 3372 3430 4308 4127 4221 3793 3619 2704 3706 3256 3456 3568 3890 3649 3538 3776 3133 3364 3441 3293 3153 4226 4476 4873 4066 4746 5096 3664 3857 4024 2790 2354 2144 1620 1620 2285 2419 2600 2862 1741 1718 2268 3123 3923 3126 3451 2950 2627 2393 2068 1679 1659 1854 1872 1446 1004 834 772 780 830 985 1210 1362 1478 1554 1955 2102 2191
2386 2980 2606 2588 2724 2668 2621 3018 2206 3049 4002 3478 3264 4010 4163 4300 4149 4510 4897 4362 4384 4605 4707 4079 3210 3212 4180 3803 3729 3554 3906 3827 3863 3109 2363 2232 2524 3102 3370 4125 3976 4750 4745 4684 4815 4315 4164 3963 3732 3031 2364 2558 1777 2257 2918 3058 2869 2860 2575 2472 3078 2835 2390 2081 1864 988 1114 1103 1107 1566 1911 1254 748 641 656 606 677 769 924 1199 1188 1134 1238 1153 891
2265 1869 2268 2302 2734 2770 1883 2214 2728 3004 3516 3778 2797 3188 3924 4044 3979 3294 3882 4767 4727 4565 4347 4425 4222 3540 3522 4534 4597 3928 4137 3623 3248 2292 2149 1465 983 1900 3399 2841 4307 3568 5984 4382 3996 4717 3819 3958 4105 3863 3235 2617 2283 3233 3271 3522 2914 3119 2851 2633 2150 2251 1986 1417 1284 798 523 449 920 1572 1738 1067 740 649 604 602 600 620 688 722 783 925 1174 1269 1027
2633 2227 1737 1736 3031 3004 2636 2991 3025 3113 3952 3145 3119 3365 3821 4164 3898 3111 1912 3590 4057 3533 3509 3833 3237 3590 3719 3737 3403 3430 2658 2455 2786 2373 1789 2010 1983 2242 1883 2311 2874 2832 3254 4850 4879 4609 4083 3858 3812 3340 3139 3763 3377 3190 3374 3176 3257 3377 3693 3548 1732 1151 1128 1322 1332 774 583 690 830 1500 1375 935 635 528 536 498 367 430 563 619 683 783 963 1202 1262
1993 2363 1681 1569 3056 3344 2902 3618 3744 3498 3620 3260 2892 2928 3805 3809 3808 4013 3572 3094 3567 3503 3481 3207 3026 3341 3039 3401 2829 2633 1844 2848 2462 2969 2814 2327 2295 3021 2326 3632 3616 3051 3651 3909 4548 3874 4129 3879 4150 3966 3825 3834 4012 3619 3263 2975 2796 2764 2351 1841 2100 1862 1691 1598 1195 887 897 642 734 749 766 601 487 402 265 376 462 508 543 553 600 674 777 1076 1360
1636 1556 2686 2358 2967 3602 2262 2790 3342 3352 3592 3546 3379 2485 2329 2888 3440 3040 3424 3607 3622 4094 3927 3912 3595 4205 3750 3552 3322 3358 3196 2898 2638 2770 2582 3000 2646 3091 3159 3566 3516 3765 3497 4553 3910 4449 4250 4045 3988 3927 4511 4186 3808 3661 3621 2862 3153 2882 3230 3200 2595 1984 2369 2154 1193 438 362 494 580 444 410 92 148 382 459 618 548 499 500 497 492 535 657 1118 1354
1396 1490 1912 2312 2739 3665 3178 2799 3383 3732 3636 4088 3954 3421 2192 2180 3023 3068 3077 3587 3140 3300 3150 2881 3271 3284 2888 3030 2965 2517 2539 2576 2502 3180 3358 3575 3079 3248 3106 2966 3292 3990 5083 4255 4448 4420 4334 4077 4167 4309 4683 4406 3400 3015 3328 3369 2710 1944 2006 2132 2156 2132 2500 2541 1477 555 655 764 857 614 539 624 742 459 619 644 541 496 623 770 873 952 1020 1250 1386
1186 1598 1770 2162 3131 3392 3678 2761 2878 4065 4037 3694 4408 4096 3596 3471 2846 3512 2687 3233 3485 3249 3220 2898 2795 2214 2353 2623 2968 3105 2734 2688 2307 2338 2768 2760 1705 2478 3104 3482 3347 3442 3471 3262 3789 4235 4343 4123 3891 4146 3892 3419 2893 2309 2408 2371 2031 1595 1294 2080 2440 2552 2352 2606 2603 2358 1285 1023 1072 763 759 731 668 671 771 872 938 1029 1186 1382 1463 1425 1255 1332 1444
821 778 1551 1938 1410 2468 2851 2445 2706 3115 4064 3905 4069 4516 4289 3508 3284 3308 3406 3401 3245 2951 2478 3083 2543 1753 1968 1950 1342 1688 2221 2622 2517 2371 2565 2300 2734 2692 2759 2970 3497 3600 3745 3464 3501 3471 3133 2654 2663 2607 2850 2848 2772 2814 2656 2824 3070 2872 2658 1703 1332 1248 1927 3690 3536 2801 2230 1755 1638 1212 801 646 813 917 1054 1309 1534 1676 1822 1880 1750 1556 1622 1732 1629
546 481 1394 996 1332 2051 2010 2286 2811 2472 2917 3612 3426 3463 4027 4451 3919 3007 2733 2810 2801 2912 2756 2098 1834 2195 1758 1165 665 500 1469 3278 2418 2855 2864 2709 2320 2466 3282 2838 3184 3125 3129 2974 2998 3200 3637 3455 3311 3401 3082 2890 3029 2830 2501 2654 2791 2950 1642 1340 1997 2552 1900 1523 2164 2166 2002 1910 1786 1440 1340 1605 1442 1246 1274 1742 1971 2297 2334 2129 1867 1819 2072 2111 1796
780 697 994 1068 768 1619 1563 2056 2234 2228 1680 2341 3015 2944 2976 3579 3537 3036 2665 2663 3082 2861 2942 3001 2177 1309 853 791 682 1158 1844 822 1801 4070 2007 1764 1728 1440 2789 3145 3958 4261 4356 4267 4111 3808 3680 3840 3416 2740 2356 2047 1492 936 1254 1119 704 690 1428 2118 2055 2296 2333 2562 2582 2686 3048 2402 2180 2488 2576 2240 2094 2109 2059 1988 2134 2182 2039 2044 2143 2844 2756 2231 1780
2123 2598 1482 608 172 238 657 1637 1576 1832 1145 894 902 1800 2099 2604 3299 3444 3097 3175 2871 2472 2866 3278 2968 2597 2006 1493 932 2415 3437 3669 4074 2903 2202 1804 2350 2133 1936 1987 3191 3504 3136 2978 2846 3020 3186 3083 2808 2427 1742 1713 1920 1810 1636 946 964 2144 2320 2724 2727 2757 3010 2879 2716 2650 3700 3498 2852 2805 2909 2932 2836 2748 2739 2662 2514 2436 2368 2494 2277 1589 1768 1964 1597
857 1306 1316 1444 1702 1479 807 906 174 997 929 877 925 1342 1489 1826 2475 3316 2603 2433 2192 2306 2504 2617 2599 1899 1701 1428 1277 908 635 3490 3236 4117 3484 2990 2441 2507 2205 2159 2195 2172 2003 2316 2772 2948 2831 2617 2669 2644 2386 2277 2432 2174 1715 1655 2671 2410 2760 2942 3070 3226 3245 3142 2944 2674 2835 3435 3436 2844 2576 2717 3136 3343 3276 3123 2916 2850 2496 1903 1855 1811 1690 1656 1806
1634 1728 1870 1720 1735 1675 1719 1704 1112 740 934 508 878 937 1241 1546 1755 1876 1794 1384 823 645 1299 1816 2015 2127 2214 2831 2175 1822 2115 3149 2618 3704 4015 4828 4078 3071 2325 2287 2459 2284 2349 2335 1632 2099 2184 2325 2220 1928 2079 2165 2530 2858 2857 2989 3567 2928 2814 2830 3124 3455 3513 3262 3029 2635 2440 2769 2709 2715 2582 2644 3080 3214 3136 2943 2735 2513 2453 2307 2239 2258 1789 1907 2053
1634 1474 1576 1668 1805 1633 1467 1695 1392 1016 829 907 855 1053 1133 1244 1455 1543 1456 1282 1419 1175 1334 1351 894 1519 2581 2336 2030 1654 2283 1614 1853 2010 3057 4217 3785 3303 3186 3286 3469 3731 3730 3429 3661 3422 2445 1781 1710 1989 2460 3124 3354 3228 3417 3535 3553 3485 2854 2291 2300 2224 2319 2354 2398 2361 2461 2693 2622 2518 2571 2809 2992 2616 2163 1954 1906 2263 2892 3097 2184 1888 1868 1876 1641
1564 1614 1539 1610 1543 1566 1413 1352 903 936 1117 1045 942 940 1052 1155 1204 1196 1550 1543 1493 1340 1173 1647 1728 1993 2416 2603 2018 2099 2232 1646 1969 1961 1791 2157 3351 3571 3633 3216 2909 2972 3035 3233 3451 3639 3455 2934 2300 2028 1701 2102 2603 3098 3381 2651 2366 2386 2635 2694 2624 2518 2588 2586 2443 2576 2536 2673 2774 3193 2671 2272 1368 1349 1469 1451 1355 1725 2050 2238 2173 2012 1666 1634 1571
1215 1233 1452 1297 1245 1248 1484 1533 1032 876 858 1120 1071 973 943 970 977 1607 2090 2338 1937 1742 1036 2464 2377 2424 2543 2496 2598 2310 1481 1456 1663 1940 2015 1879 2224 2807 3072 2686 2616 2296 1975 1425 1245 1142 1507 1828 2475 2720 2281 2078 1955 1808 1346 1222 1361 2158 1843 1839 2057 2414 2528 2506 2456 2195 1986 1991 2110 1996 2158 1984 2071 1880 2006 1893 1936 1928 1792 2088 2219 2177 1883 1794 1910
996 1109 1294 1277 1147 1090 1172 1208 1144 1105 1045 1123 1282 1304 1184 1153 1175 1368 2050 2315 2488 2128 2838 2176 2081 2066 1543 1377 1619 1623 1776 1832 1706 1664 1664 1610 1638 1934 2123 1887 1827 1751 1861 1453 1729 1896 1979 1980 1795 1728 1944 1938 1857 2024 2099 1960 1943 2089 1976 2082 2325 2316 2320 2233 2027 1860 1996 1904 1868 2204 2033 1941 2051 2099 1976 1942 1934 1677 1845 2011 1998 1932 1939 1936 2034
872 896 933 901 974 1002 1043 1131 1034 979 1072 1065 1177 1348 1445 1402 1327 1249 1958 1976 2222 2506 2162 1770 1899 1591 1039 949 1068 1144 1149 1216 1396 1499 1581 1471 1252 1416 1555 1484 1669 1530 1875 1564 1506 1473 1793 1939 2037 2027 2126 2190 2539 2587 2238 1420 1502 1748 1877 1956 1846 1619 1800 1859 1832 1866 1880 1976 1973 1708 1910 1775 1684 1918 1885 1822 1581 1770 1754 1691 1746 1823 1908 2200 2015
644 730 750 768 767 747 774 665 687 764 790 922 1000 1114 1157 1088 1015 998 1889 1788 1870 2013 1603 1869 1490 1507 1029 1032 1063 1082 1171 1204 1186 1231 1210 1070 908 784 911 1003 1148 1463 1387 1329 1273 1174 1347 1478 1722 2086 2212 2621 3254 2574 2664 2068 1304 1486 1374 1572 1618 1735 1519 1408 1333 1374 1375 1700 1723 1188 1140 1164 1127 1560 1745 1647 1591 1519 1519 1752 1528 1622 1908 2040 2070
Wind_Speed
14 13 14 15 16 19 21 22 23 26 29 27 25 25 24 23 23 24 23 19 17 18 18 16 15 14 13 15 14 14 14 15 12 11 11 14 17 19 19 19 19 20 20 22 22 22 22 23 22 22 21 22 20 21 19 19 17 17 17 18 17 18 18 18 17 18 17 15 15 15 14 15 16 19 21 21 21 21 21 20 20 20 21 23 21
13 12 11 12 12 17 21 20 21 24 27 29 24 22 25 24 25 25 18 18 17 17 18 16 13 13 14 13 13 12 14 13 14 10 12 15 17 19 19 20 20 20 21 22 24 23 23 23 23 22 23 21 21 18 18 18 18 17 18 17 17 17 18 18 18 18 17 15 15 15 14 14 16 16 18 22 22 23 22 21 21 20 20 20 20
13 13 11 13 12 15 20 22 21 24 27 28 24 24 25 25 27 21 20 17 16 16 18 15 14 12 13 12 14 13 14 13 13 13 11 15 17 19 20 20 20 21 22 23 23 24 23 23 23 23 23 22 20 19 17 18 18 18 18 18 17 17 17 18 18 18 18 17 16 16 15 16 16 17 19 19 20 20 21 21 21 21 21 21 20
11 12 12 11 12 15 20 24 25 27 27 29 26 24 24 28 29 20 18 17 17 17 16 15 13 12 13 11 14 13 13 13 12 11 12 15 17 18 18 20 21 22 23 23 23 24 24 23 23 23 22 21 20 19 18 18 18 18 18 17 17 17 17 17 18 18 17 16 16 16 17 16 17 18 19 20 20 21 21 21 21 20 21 22 21
10 11 10 9 8 11 17 20 24 28 26 27 26 26 25 26 21 19 18 16 16 17 14 13 13 12 12 9 nan 12 13 13 11 12 13 15 16 17 18 18 20 22 23 22 22 22 23 23 23 22 22 20 20 20 19 19 19 18 18 18 17 18 18 18 18 18 17 16 16 16 16 16 16 17 19 20 20 21 21 21 21 21 21 21 22
10 9 11 13 18 21 20 20 19 22 17 22 25 27 24 19 17 16 15 15 16 15 14 11 13 12 10 9 12 13 13 9 12 12 12 15 15 16 17 17 18 19 20 22 22 21 22 22 22 22 21 20 20 20 20 20 20 19 18 17 17 18 18 18 17 17 17 16 16 16 16 16 16 16 17 18 19 20 21 21 21 21 21 22 22
15 15 20 19 22 17 15 15 16 18 18 21 19 21 17 18 18 15 14 13 13 16 12 9 11 13 12 12 13 11 11 13 12 11 13 14 16 17 15 15 16 17 18 17 21 21 20 21 21 21 21 21 21 21 21 21 20 19 19 18 18 18 19 18 17 17 17 16 16 16 16 15 14 15 16 17 18 19 19 20 20 21 21 21 22
17 17 19 21 17 16 16 15 17 17 17 16 16 13 16 17 15 12 15 11 12 11 13 10 9 8 8 9 13 11 10 12 11 9 9 11 13 15 16 16 14 13 15 16 16 17 19 19 20 20 20 20 21 20 20 19 19 19 18 17 17 18 18 17 17 17 17 17 16 16 15 14 13 14 14 15 16 17 19 20 20 19 20 20 20
18 20 22 25 19 18 17 16 17 16 15 16 18 15 14 11 10 11 13 12 15 8 10 9 9 8 8 8 11 10 10 13 9 10 9 11 12 11 13 13 14 15 12 13 14 14 14 17 17 18 19 19 19 18 18 17 18 17 16 15 16 17 17 16 16 16 16 16 17 16 15 14 13 13 14 15 16 17 18 19 19 18 19 19 20
21 23 25 27 22 19 18 15 14 14 12 14 17 13 11 15 9 9 10 11 13 12 10 10 8 4 6 6 8 7 7 9 10 9 10 12 12 11 11 11 13 12 14 9 9 10 11 13 15 14 15 16 16 16 15 15 15 14 13 14 15 15 15 15 15 16 16 16 16 17 16 15 14 13 14 15 15 16 17 17 18 18 18 18 17
24 25 28 27 21 19 16 15 14 14 14 12 10 14 13 8 9 10 12 10 11 10 11 9 12 4 3 6 9 9 6 8 12 11 10 10 12 10 10 13 9 10 10 13 11 6 8 8 7 7 9 14 14 13 12 12 11 11 12 13 13 14 14 14 14 15 15 16 16 16 16 15 14 13 13 14 15 15 16 17 18 17 17 16 16
22 26 26 28 20 17 14 13 12 13 14 13 12 11 12 9 9 12 10 10 12 9 7 5 5 5 4 5 7 9 9 11 11 8 7 8 11 12 9 11 11 12 9 6 9 10 7 5 4 5 5 9 13 11 11 10 10 9 9 9 10 11 12 12 13 13 14 14 15 15 15 14 13 12 13 13 14 15 16 17 17 16 15 16 16
21 23 28 24 18 14 13 13 10 12 11 13 11 10 12 11 9 11 13 12 6 6 8 6 5 5 5 4 5 6 9 11 11 8 6 9 10 9 10 8 9 9 10 9 8 6 5 4 5 1 3 5 8 12 13 13 12 10 8 6 7 9 10 10 11 12 13 13 14 14 13 13 12 12 13 13 14 16 17 17 16 15 15 15 16
21 22 21 22 14 12 12 11 11 11 13 11 10 10 12 10 10 12 13 11 7 5 4 6 9 5 5 4 4 6 8 12 12 6 3 8 9 11 11 9 6 8 10 9 6 5 3 2 2 4 3 4 6 7 9 11 12 14 10 8 6 7 8 9 9 10 12 13 13 14 14 13 13 14 14 15 16 17 18 17 16 15 14 15 15
20 19 18 15 15 13 12 12 11 10 13 12 11 10 10 6 12 8 10 12 7 5 4 5 6 2 2 3 4 4 9 12 11 3 2 4 7 8 10 9 7 7 9 8 6 3 7 5 3 1 4 3 6 7 8 10 12 18 17 13 10 7 7 7 8 9 11 11 12 14 14 14 14 15 15 16 18 18 18 17 16 15 14 15 16
16 16 14 13 13 13 14 11 12 11 11 11 11 10 9 8 8 6 7 9 7 4 3 2 2 5 4 5 3 2 5 10 9 10 7 2 4 4 8 10 10 9 8 8 7 7 6 3 3 3 4 4 5 5 9 9 13 17 19 17 15 12 8 7 7 8 9 10 12 13 13 14 14 15 17 18 19 18 18 17 16 15 14 15 15
14 13 12 12 12 13 13 10 10 11 9 9 9 8 9 7 4 7 4 4 6 5 6 4 1 2 3 3 5 5 5 5 5 11 13 6 7 5 6 7 9 9 11 6 7 7 4 6 6 4 7 4 5 6 9 11 12 12 14 17 17 15 12 9 9 9 10 10 12 12 13 14 15 16 18 20 20 19 18 16 15 15 15 16 15
11 11 9 10 11 11 11 10 8 7 6 9 8 6 7 6 7 5 4 5 3 6 6 6 5 5 4 2 0 3 4 8 8 7 10 13 9 4 4 4 7 8 9 8 5 3 6 8 5 6 4 4 5 5 6 10 11 13 13 14 18 17 15 13 11 9 10 11 12 13 13 13 14 16 19 19 19 19 18 17 17 17 17 16 15
8 8 8 8 8 9 9 9 6 5 5 7 3 4 3 5 8 5 6 6 3 0 3 1 4 2 8 7 6 5 6 7 7 7 9 11 13 9 5 3 6 5 6 3 6 6 7 9 6 9 7 6 4 4 6 9 11 13 16 18 18 17 16 15 12 10 9 10 12 12 13 13 14 16 18 18 18 18 18 19 20 20 19 18 16
8 6 7 7 7 6 6 7 6 3 2 1 3 5 6 5 5 6 7 7 4 2 2 3 4 4 4 7 7 7 8 8 8 5 4 7 10 10 11 12 5 4 3 6 5 6 10 7 10 10 6 5 5 6 9 7 9 12 13 17 16 17 15 14 12 10 10 10 11 12 12 12 14 16 17 17 18 18 19 21 22 22 21 19 17
6 5 6 6 5 5 5 3 2 4 1 3 2 5 5 7 5 5 5 4 4 3 2 1 2 5 4 6 8 7 5 7 7 4 5 7 6 6 5 5 5 7 4 2 9 6 8 7 10 12 9 9 7 8 8 7 8 9 12 18 16 17 16 14 11 10 10 10 11 10 10 12 14 16 16 16 17 19 21 22 23 23 22 20 18
5 4 4 5 4 4 4 3 2 4 4 2 9 8 8 8 9 7 7 7 5 5 3 3 2 4 2 3 4 6 11 9 6 5 6 6 4 4 4 5 6 4 5 6 7 7 8 8 11 14 13 12 10 9 8 10 9 11 13 18 16 16 16 13 10 9 9 10 10 10 9 11 14 15 16 17 18 21 22 22 23 23 21 19 18
3 3 3 4 2 4 4 3 3 4 6 4 8 8 11 9 8 9 8 8 6 4 1 4 3 2 1 2 2 4 4 6 7 8 6 5 5 3 3 3 5 5 5 6 3 2 6 7 5 9 11 12 11 10 10 10 9 10 12 16 14 13 12 11 9 8 8 10 10 9 9 11 14 14 15 16 19 21 22 22 22 22 21 19 18
3 1 2 4 1 2 2 0 4 2 5 5 7 5 6 8 8 7 7 7 7 4 4 2 4 3 4 4 2 2 4 5 2 1 6 5 4 2 1 2 6 5 5 3 6 6 5 10 9 10 10 10 9 9 9 10 10 8 8 10 10 10 10 9 8 7 8 10 10 10 11 13 14 14 14 16 18 20 21 21 21 21 20 20 19
1 0 2 3 3 2 2 2 6 4 4 6 10 10 6 6 7 7 7 7 7 6 3 2 4 2 6 2 3 4 3 2 3 3 4 3 6 6 5 6 5 5 7 6 4 5 8 6 6 8 12 9 9 10 10 10 10 12 12 8 8 8 9 10 8 9 10 10 11 12 13 14 15 14 15 16 18 19 20 21 20 20 20 20 20
2 2 3 3 6 5 4 6 6 7 8 8 7 11 11 9 6 7 6 7 6 5 5 4 6 5 6 3 3 2 2 2 3 5 3 4 5 8 7 5 4 6 7 9 6 6 7 7 6 8 10 12 11 12 11 9 7 13 15 12 7 4 6 11 10 10 10 11 12 13 14 16 16 16 15 16 17 18 19 20 20 20 20 20 21
5 6 3 7 7 7 7 6 7 6 7 8 9 8 8 10 6 9 7 5 5 5 6 6 3 4 4 7 4 3 1 1 6 7 6 5 2 6 9 8 5 6 7 9 8 8 8 8 9 8 9 11 10 11 9 9 6 12 15 12 9 5 8 11 10 10 10 11 12 13 15 16 17 17 16 15 15 17 18 19 19 19 20 20 20
9 9 8 9 9 8 9 7 8 9 8 9 8 10 9 7 8 7 8 6 4 5 6 5 4 4 4 2 5 4 2 2 5 3 5 4 3 4 8 9 7 5 6 6 9 8 5 9 9 8 9 9 9 9 8 7 7 7 11 9 6 7 10 12 10 10 10 11 13 15 15 17 17 17 16 15 15 15 17 19 19 19 19 20 20
12 12 12 11 11 10 9 10 10 10 10 9 7 8 8 7 7 5 5 4 4 4 3 5 3 2 4 2 3 5 3 4 1 3 4 3 4 4 6 10 9 8 7 7 7 8 8 5 7 10 11 11 8 8 8 6 7 9 10 7 5 5 12 12 10 10 10 13 15 16 16 17 17 17 16 14 13 14 16 18 19 19 20 20 20
13 14 15 14 14 11 12 11 12 10 9 9 8 7 6 4 5 4 3 5 5 5 3 4 4 5 4 9 8 1 3 4 3 5 5 4 1 3 8 8 9 7 7 8 7 8 8 7 7 8 9 8 9 9 10 8 10 8 6 5 5 4 13 12 8 8 10 13 16 17 17 17 18 18 15 13 12 12 14 16 18 18 19 19 19
14 15 13 15 14 13 12 10 9 8 7 6 7 6 5 3 4 5 4 4 3 3 4 5 6 5 3 2 4 5 4 3 2 5 3 2 1 1 7 8 8 7 9 9 8 7 8 8 7 5 7 8 7 9 5 3 8 8 6 4 4 3 2 1 6 10 13 15 17 19 18 17 19 18 15 13 11 12 13 15 16 17 18 18 18
12 13 11 11 12 10 9 7 6 6 6 4 5 5 4 3 3 5 5 5 4 5 5 5 5 3 5 5 4 4 5 3 2 1 5 7 7 5 5 8 7 7 9 9 9 5 8 6 7 5 4 5 6 7 7 6 4 6 5 4 4 2 3 5 9 12 14 17 18 19 18 19 21 18 15 13 11 11 12 13 15 15 15 16 16
11 9 8 7 9 7 6 5 4 5 4 3 3 4 3 2 1 1 3 4 4 5 5 4 4 5 5 4 4 4 4 4 4 3 3 5 5 5 6 7 7 8 8 10 8 6 7 7 7 7 6 7 6 7 8 7 6 6 5 5 5 5 5 6 7 5 11 17 17 18 19 21 21 18 15 12 10 9 10 12 13 13 13 13 12
8 8 7 7 6 6 4 5 5 4 5 2 4 4 4 3 3 4 6 6 4 4 3 3 5 3 4 6 7 5 7 8 6 6 6 4 6 10 8 6 7 7 10 12 10 10 8 8 7 9 6 7 7 10 8 7 7 7 6 6 5 6 7 6 4 6 8 11 15 19 21 21 19 16 15 12 9 9 10 11 12 12 11 11 11
9 7 7 7 9 7 4 7 7 7 5 5 4 5 5 5 4 2 4 7 6 5 5 6 4 5 5 5 6 7 7 8 10 9 6 5 5 5 6 11 10 11 10 11 14 13 11 10 10 8 8 9 9 8 9 8 8 8 7 7 5 4 5 5 5 5 6 8 16 20 20 19 15 14 14 11 8 10 10 10 11 11 10 10 10
10 9 9 9 12 9 8 10 5 8 7 6 6 6 7 6 6 5 5 6 4 4 4 4 6 5 4 5 5 5 6 5 7 6 6 6 6 8 9 7 7 7 7 11 12 12 11 10 12 11 10 9 9 8 9 10 8 7 6 6 7 6 4 3 5 6 8 11 16 18 17 13 12 13 13 9 9 9 9 9 9 10 10 11 11
11 11 12 11 12 12 8 9 8 8 10 8 8 6 8 9 9 7 7 8 8 7 5 5 4 5 6 6 5 6 5 6 7 8 8 8 9 9 8 9 11 11 10 11 11 12 11 10 10 12 10 9 9 9 10 10 9 9 8 7 6 6 7 7 4 5 1 5 11 12 10 nan 11 12 11 9 9 8 8 8 8 8 10 11 12
13 12 13 12 13 13 10 10 10 10 10 10 9 8 7 9 11 9 7 7 6 6 6 6 7 7 6 7 7 7 6 7 8 9 9 8 8 10 12 10 9 9 10 9 9 10 11 11 11 10 11 10 9 8 8 8 7 6 6 6 6 6 7 8 10 7 7 6 6 5 4 4 5 5 9 9 7 7 5 5 5 7 9 11 12
12 15 12 14 16 13 11 11 11 12 12 11 10 10 9 8 9 9 8 7 8 7 7 6 7 6 7 7 7 9 9 7 7 9 9 11 10 10 9 9 11 11 11 11 10 10 10 10 10 11 10 10 8 4 5 5 5 5 5 5 6 7 8 11 11 13 11 9 8 4 6 4 3 8 6 2 3 3 2 4 5 7 9 11 11
13 14 18 18 16 12 12 12 14 15 11 11 11 11 10 8 9 10 11 10 8 7 7 9 8 7 8 8 8 10 10 10 9 9 9 10 11 10 11 11 11 11 10 9 8 7 7 7 7 6 7 7 6 7 6 4 4 3 5 6 5 8 9 14 15 14 13 13 13 11 6 3 5 6 3 5 3 1 0 2 4 7 8 9 12
15 13 22 21 14 15 18 16 16 17 12 12 13 13 12 10 10 9 11 11 9 9 10 10 10 11 9 7 6 8 13 14 10 8 11 17 15 13 12 12 12 12 11 10 9 8 7 7 6 7 6 6 6 6 4 5 6 6 7 10 11 11 13 14 16 16 15 14 17 15 12 9 5 7 9 9 8 6 6 5 8 8 10 12 16
19 19 19 22 20 21 17 17 17 18 17 17 15 11 7 13 11 11 13 14 12 12 10 13 11 10 9 7 7 6 13 7 12 14 12 11 13 12 14 14 14 13 13 13 12 11 10 9 9 9 8 8 8 9 9 9 8 10 12 13 13 13 14 15 17 20 19 16 17 19 17 12 7 7 10 9 9 10 11 12 11 16 16 16 19
22 24 22 22 21 20 19 21 22 17 23 23 22 8 13 14 14 16 15 15 15 14 13 15 15 13 12 12 11 12 17 17 18 17 15 12 13 13 12 11 13 14 13 12 12 13 13 12 13 13 13 13 13 14 13 11 14 16 15 15 14 14 16 16 16 20 24 21 18 18 18 17 12 8 10 10 10 10 11 11 17 18 16 19 20
29 28 25 27 28 26 24 24 25 31 29 27 28 30 28 25 22 18 18 17 16 16 15 16 17 16 15 13 14 12 15 19 12 13 13 15 14 13 11 10 9 10 12 13 12 12 12 12 13 15 15 16 16 17 15 15 17 16 16 15 15 14 14 15 16 17 22 23 18 15 16 19 18 13 11 10 10 12 12 11 9 11 16 18 20
28 28 27 30 31 29 30 32 32 29 29 30 30 31 30 29 27 24 20 20 19 18 19 20 20 18 15 17 18 22 24 28 21 17 16 17 15 13 13 14 11 10 8 9 13 13 11 9 10 11 13 14 15 16 17 17 18 15 14 14 15 14 13 12 13 14 16 20 15 12 13 17 18 14 12 12 12 14 14 14 11 16 18 20 20
30 31 30 29 27 29 30 31 30 30 30 31 32 32 32 30 28 25 24 23 22 20 22 20 21 24 27 26 26 25 24 27 23 20 18 18 19 20 19 18 16 14 14 13 10 10 12 12 11 10 12 14 13 16 15 16 15 16 15 13 14 11 10 9 10 11 14 18 14 11 11 15 17 14 13 15 16 18 18 17 17 18 18 18 19
32 34 34 31 29 30 32 31 31 30 30 34 34 32 33 31 29 25 23 24 23 25 24 28 31 29 28 29 28 28 29 30 27 25 24 20 20 21 20 20 19 18 17 16 15 16 16 17 15 13 12 12 14 16 19 20 19 16 15 14 14 14 11 11 12 14 16 20 18 18 14 17 18 14 15 17 18 19 20 17 15 14 12 14 16
35 34 33 32 32 32 34 35 34 33 32 36 34 34 32 31 27 23 23 24 25 25 28 33 32 32 32 31 31 31 32 31 30 28 27 24 23 23 21 20 20 21 20 21 30 27 26 23 21 19 18 19 20 19 19 21 21 20 19 18 18 17 14 13 14 17 18 23 24 20 18 19 20 17 17 19 19 18 18 19 17 14 16 17 17
38 38 37 36 36 36 36 35 35 36 35 36 37 37 35 34 29 26 24 24 25 27 31 34 34 34 34 33 32 32 33 34 32 30 30 27 27 26 25 23 22 22 23 22 28 31 26 24 21 19 18 16 16 18 21 23 25 24 22 21 20 21 19 17 17 18 20 25 25 24 23 21 24 22 19 19 19 17 18 21 22 21 19 17 19
38 38 38 39 38 36 37 38 39 38 37 37 39 40 40 38 33 30 28 26 27 30 29 31 34 33 36 41 38 34 34 34 32 32 33 30 30 28 26 25 24 25 26 30 30 29 26 23 22 22 23 21 22 24 27 29 31 29 26 23 22 23 21 22 21 21 21 25 30 29 27 25 23 24 21 19 18 21 22 22 24 24 21 24 23
40 39 38 39 40 38 38 39 43 42 40 40 43 43 43 42 37 31 32 33 33 32 31 32 34 34 34 36 42 38 37 34 34 33 33 33 31 28 28 26 26 27 31 32 31 29 29 28 28 28 28 30 30 30 30 33 35 31 30 27 26 26 25 24 24 24 24 28 34 33 29 25 24 24 25 22 18 19 24 26 23 24 27 26 25
Wind_Direction
99 111 114 114 116 111 114 112 111 117 118 118 122 125 122 122 118 115 108 107 110 101 100 98 98 101 103 101 105 103 99 97 94 76 90 91 94 89 83 90 94 97 99 101 103 104 102 100 102 100 99 95 92 85 83 81 81 76 77 78 76 75 74 73 70 67 64 60 63 62 58 57 54 45 44 44 43 46 46 45 45 46 40 39 42
98 101 104 106 98 92 95 90 88 102 115 118 121 124 124 122 118 113 124 112 109 109 101 95 96 94 95 102 94 91 95 97 99 99 91 100 101 99 86 91 95 98 99 101 102 103 104 103 102 100 97 96 92 87 83 82 80 80 77 79 78 75 73 70 67 67 67 61 59 60 60 61 58 57 51 42 41 41 45 45 45 46 46 45 43
104 106 108 114 105 99 108 112 111 115 116 115 125 130 128 125 117 119 108 109 101 96 98 102 102 100 97 100 94 81 87 94 87 88 94 100 102 104 99 90 94 96 98 101 101 102 103 102 100 98 95 93 91 89 87 83 81 78 79 77 78 76 71 68 67 66 65 60 56 61 63 65 63 61 57 55 52 51 49 49 47 46 47 47 46
117 120 120 119 122 122 120 118 114 105 112 125 133 129 128 117 108 112 119 111 108 103 101 100 100 107 104 94 98 104 95 94 106 115 108 100 105 106 106 101 92 93 95 99 100 102 101 101 99 98 95 92 90 90 86 84 81 79 78 77 77 76 71 68 66 65 64 61 60 59 62 63 62 60 60 58 55 53 54 55 54 53 50 50 49
134 129 122 111 97 78 82 92 104 112 120 123 125 117 97 90 105 100 95 97 98 104 104 117 105 97 97 97 nan 103 98 94 96 93 101 101 102 107 106 107 105 98 97 97 97 100 102 101 100 96 94 92 89 86 85 82 79 78 76 76 75 75 72 69 66 65 64 64 62 63 64 66 64 62 60 60 57 56 55 55 56 55 54 53 51
123 134 98 74 61 56 42 50 71 80 93 93 89 89 91 101 97 105 97 100 101 99 103 101 109 108 107 104 93 82 89 99 103 105 105 114 114 107 106 108 110 112 109 101 101 101 100 100 98 97 94 89 86 82 80 78 77 75 74 73 73 70 71 69 65 63 62 61 60 61 63 65 65 63 59 55 55 54 53 52 54 55 54 52 51
84 68 65 65 68 71 78 77 69 68 65 68 71 83 99 103 108 106 97 100 108 115 114 118 122 128 130 120 104 105 121 127 122 127 121 116 119 116 109 104 110 115 116 120 108 103 101 99 98 96 91 87 83 80 77 75 73 71 69 68 67 66 67 66 63 60 60 58 57 58 61 62 64 61 58 55 53 52 50 50 49 51 52 53 51
108 108 111 105 108 111 117 111 102 101 92 88 91 93 97 99 103 106 114 114 106 108 109 100 93 87 98 100 96 114 109 93 94 102 107 120 120 131 135 129 124 115 113 125 125 115 97 96 92 89 87 83 81 78 78 75 72 69 66 65 64 65 65 63 61 57 56 56 54 56 58 61 62 60 53 50 51 48 49 49 46 47 50 50 49
117 119 120 114 118 122 115 117 108 103 110 110 96 91 89 96 102 113 119 119 107 87 98 100 86 83 79 104 112 107 96 109 129 134 141 132 122 127 127 133 125 128 130 130 127 122 102 90 86 84 83 82 79 77 76 73 72 70 69 66 64 64 64 62 58 54 52 51 51 52 54 58 62 57 50 48 47 46 47 46 45 43 45 45 43
122 127 126 123 122 121 118 106 109 111 108 102 96 101 91 91 92 100 99 113 122 118 116 85 70 75 122 97 89 97 109 117 112 93 102 126 143 140 133 121 129 118 132 136 109 118 108 89 78 78 78 79 78 77 71 72 72 74 72 68 66 64 63 60 54 51 48 46 47 47 49 52 55 53 46 44 45 43 43 42 39 38 41 43 40
124 128 125 115 122 122 120 111 102 106 102 90 94 93 90 99 110 114 103 98 106 122 120 127 146 143 146 132 122 118 116 94 90 94 107 133 143 135 152 141 133 137 142 138 133 98 106 105 95 83 76 62 71 66 66 64 67 67 69 68 66 65 63 59 53 47 46 44 43 44 46 49 51 48 42 41 42 39 37 36 35 34 37 39 36
125 123 120 119 119 119 116 111 121 120 122 116 99 103 106 99 101 97 95 93 90 89 94 131 136 151 136 100 94 100 95 81 94 123 137 130 115 143 149 141 146 134 136 152 133 166 154 143 94 78 67 41 43 42 41 38 41 48 57 67 69 67 65 61 51 45 44 43 41 41 45 48 48 43 38 36 35 34 34 32 32 32 34 34 32
120 119 112 113 119 119 119 110 98 89 83 83 105 103 97 88 81 88 96 91 81 97 150 147 128 135 131 118 108 100 96 111 103 92 123 139 138 130 130 140 132 134 149 160 173 179 150 139 136 358 23 7 25 21 14 12 11 5 19 40 57 63 66 61 52 44 40 40 38 37 41 44 43 39 34 33 32 32 32 31 30 34 33 29 25
119 118 117 114 116 114 111 108 106 105 95 92 83 86 88 87 71 80 76 91 111 129 165 153 118 96 104 112 114 96 92 80 86 105 163 143 139 141 136 148 166 153 154 171 171 147 146 212 149 247 195 347 2 347 3 4 359 350 345 360 27 51 57 57 49 41 36 35 33 33 35 36 36 33 29 29 29 29 32 33 35 36 32 26 22
115 109 113 121 122 119 103 114 112 105 104 99 93 77 74 76 89 67 91 94 63 90 80 142 93 90 106 131 108 106 102 104 107 135 144 156 142 139 124 154 176 171 152 151 141 166 204 210 201 269 325 245 284 321 354 358 349 339 334 342 354 21 44 51 49 42 38 35 32 33 34 31 30 28 25 27 27 29 34 37 40 37 29 24 22
108 108 116 121 121 120 124 113 123 119 113 107 93 80 63 59 77 63 65 89 50 67 101 105 143 170 144 110 80 80 158 142 147 161 156 91 103 161 158 171 164 174 173 166 195 184 216 229 212 208 234 248 275 281 322 338 347 339 332 336 346 357 12 34 43 43 42 39 34 36 34 30 26 25 24 26 27 31 39 42 40 35 28 22 24
112 114 116 123 123 125 123 124 119 117 114 103 98 86 78 37 30 67 56 83 110 33 36 31 33 58 56 148 171 172 154 131 155 161 151 155 196 172 179 176 175 172 156 174 198 194 204 229 236 211 232 239 297 312 314 336 343 336 330 337 342 344 353 9 24 39 45 45 41 40 37 31 26 25 26 26 28 35 41 42 38 32 26 23 26
111 113 124 116 122 123 126 127 118 112 125 109 79 48 68 33 34 32 36 73 60 68 19 38 14 34 74 29 47 171 124 159 170 161 150 170 167 178 159 191 189 167 170 186 231 180 207 249 247 238 250 257 255 301 323 329 326 329 330 336 343 343 342 351 7 29 42 46 44 43 42 35 28 28 29 30 35 38 38 37 36 32 29 28 30
103 112 117 120 114 129 127 133 128 105 62 62 79 125 21 360 34 354 35 48 46 9 105 69 121 126 178 182 200 193 195 202 167 166 166 163 161 168 181 192 238 182 138 178 222 212 209 252 270 261 243 259 286 291 306 308 328 323 329 333 342 342 339 343 355 16 34 42 43 42 41 37 30 30 28 32 41 40 33 34 30 31 32 32 34
117 126 114 120 120 120 127 130 148 112 93 49 356 3 41 350 346 350 359 23 355 344 92 167 141 84 202 172 199 194 185 211 207 192 158 161 161 179 176 179 196 329 117 202 268 249 248 241 273 284 299 304 312 320 310 320 323 330 330 334 342 342 339 338 347 5 26 37 44 43 40 34 33 30 29 34 42 41 36 33 30 30 33 34 35
126 111 120 116 115 122 108 134 108 112 16 342 331 21 345 338 338 9 353 351 359 6 18 140 147 140 205 195 188 179 208 222 210 163 188 180 171 186 147 186 177 233 206 287 275 286 293 292 285 296 310 309 305 286 305 304 317 318 322 336 344 346 339 337 343 356 16 29 42 43 36 33 33 34 34 38 41 43 41 35 30 32 35 37 39
112 122 113 114 100 98 97 68 53 41 307 332 340 3 341 338 350 353 347 338 11 27 30 7 65 94 232 199 211 186 195 196 180 201 200 207 188 180 172 174 199 190 212 224 204 275 282 327 321 323 325 312 301 310 309 323 325 322 321 335 349 348 342 337 338 348 8 23 36 39 31 29 31 32 37 42 46 48 45 38 34 34 39 42 43
93 110 93 84 92 88 73 4 43 310 297 20 338 358 339 343 338 353 346 346 352 21 82 74 50 169 280 335 216 222 227 225 178 175 196 203 206 209 182 220 260 225 204 216 278 276 325 316 327 301 301 293 294 298 305 307 309 304 315 346 356 356 346 337 338 350 11 25 30 29 26 29 33 34 40 44 47 49 47 40 36 36 42 46 49
132 87 76 44 38 72 81 165 275 287 338 345 307 320 320 334 347 341 2 338 359 352 20 90 201 125 123 231 201 208 211 250 114 250 228 211 207 214 257 235 268 287 271 253 245 239 243 252 249 272 267 276 282 289 299 301 315 356 350 356 4 8 357 343 340 351 9 23 22 18 21 30 33 37 45 50 51 51 48 43 38 39 46 52 57
199 41 16 26 301 4 333 301 302 336 312 298 323 318 337 341 348 349 333 354 347 353 353 12 107 112 104 307 330 194 187 315 239 242 279 248 251 237 215 206 271 284 286 277 300 258 262 265 271 274 287 290 302 307 309 315 319 341 340 348 7 354 356 344 343 354 10 17 18 16 19 26 31 38 47 54 53 52 51 49 44 43 50 58 64
262 267 311 333 308 327 326 319 318 329 322 335 328 334 335 325 354 325 358 320 343 349 12 28 28 50 83 16 12 8 65 259 246 252 257 246 247 264 260 248 252 266 292 294 316 305 295 284 283 295 303 308 311 309 311 320 323 328 339 340 324 9 347 344 349 355 7 13 20 21 20 24 30 37 48 55 55 54 53 51 49 49 55 63 67
250 264 262 283 299 297 315 308 310 314 322 325 337 319 321 318 332 335 341 6 8 0 6 23 18 66 102 103 71 40 86 295 247 244 256 239 271 274 268 265 252 263 277 296 317 330 314 313 305 304 310 315 311 309 315 319 336 335 344 331 321 299 329 349 351 359 7 13 26 24 21 29 31 34 46 50 56 57 57 57 56 54 58 62 67
255 265 271 276 283 293 297 302 300 310 315 320 329 325 324 336 334 342 354 5 350 2 20 34 32 24 49 75 115 101 108 210 284 327 292 320 41 300 295 290 285 278 273 284 285 298 307 315 307 310 308 306 317 304 317 332 329 2 346 326 314 300 340 346 356 7 10 18 30 24 25 32 35 34 38 48 54 55 57 61 62 59 59 61 65
267 272 278 275 279 280 287 300 298 301 309 309 318 314 320 338 335 352 17 335 341 57 31 23 41 32 0 90 72 79 46 60 26 353 348 30 16 331 289 301 304 302 296 289 297 298 296 275 289 312 314 309 319 321 305 303 310 319 317 310 300 289 336 349 4 20 23 21 29 28 25 33 36 36 37 43 51 52 57 62 62 60 58 60 64
269 275 275 284 274 282 281 282 295 300 303 309 314 318 320 342 348 1 30 330 24 19 53 70 35 13 13 346 29 10 93 93 13 344 17 30 335 314 287 289 307 301 294 300 295 293 293 286 284 281 298 307 326 335 328 329 338 321 282 259 265 279 324 355 12 45 55 37 30 29 24 28 34 34 35 43 48 52 53 56 58 57 57 58 58
266 265 272 280 275 278 273 281 286 293 298 307 309 314 321 353 360 0 33 5 28 33 47 39 46 44 2 356 348 10 335 40 89 341 352 342 61 281 307 316 311 315 307 302 294 294 286 297 302 303 296 316 329 290 295 291 315 317 290 273 286 289 2 26 88 74 65 64 41 29 22 25 32 31 31 37 42 43 48 52 48 49 50 51 51
272 260 266 276 284 286 286 292 299 307 311 324 328 320 327 0 20 11 8 356 15 29 45 35 42 37 13 8 337 346 357 352 356 306 342 352 354 356 305 303 313 312 308 305 307 316 299 302 299 303 327 312 288 307 302 299 296 314 299 304 304 302 317 347 46 54 49 49 42 23 19 25 32 28 30 37 39 41 44 49 55 54 42 43 42
265 276 269 266 270 279 294 282 309 286 283 300 304 293 320 332 28 358 277 339 9 22 11 33 47 14 344 356 346 341 339 344 340 3 341 321 325 316 310 330 331 307 297 303 302 307 306 305 304 322 323 301 309 307 302 300 310 311 308 306 312 322 345 4 2 348 20 34 32 12 16 27 31 24 33 39 38 43 48 48 52 54 51 48 43
256 272 262 274 259 266 280 283 273 274 296 279 324 300 307 316 349 0 343 335 350 10 356 355 346 13 339 338 344 350 340 346 346 351 340 323 330 321 332 300 286 295 303 309 313 306 309 305 322 316 317 326 325 299 297 314 326 321 329 331 336 338 330 313 329 7 45 32 14 9 17 27 27 23 38 44 42 45 52 52 51 52 50 44 38
262 252 275 284 269 263 250 250 254 266 263 287 276 275 292 304 319 0 332 321 337 337 342 334 343 332 338 328 342 347 353 342 344 346 344 329 300 293 302 314 327 323 329 321 312 320 323 322 316 320 317 306 305 312 320 336 336 337 330 330 314 293 304 324 343 8 40 353 2 10 19 25 23 26 40 45 42 48 52 51 48 44 40 37 32
282 277 269 269 273 271 261 272 276 280 289 284 287 288 290 298 303 308 290 271 285 310 307 321 326 332 321 309 326 343 330 315 304 302 303 327 330 326 317 304 308 310 313 317 315 311 316 324 321 327 325 326 325 325 335 328 334 328 333 343 336 322 322 351 1 9 335 343 4 15 18 18 22 31 42 39 39 46 47 46 42 36 30 26 25
271 276 266 260 263 266 273 273 273 269 275 280 282 294 296 294 296 300 292 300 311 307 309 285 280 287 306 304 304 300 314 325 315 326 330 339 337 321 315 326 337 343 340 323 325 333 333 331 328 330 333 340 347 350 338 338 344 348 342 335 327 334 333 333 339 331 275 17 16 22 22 nan 24 31 35 29 33 41 42 40 36 31 27 21 15
250 253 264 267 264 272 269 271 273 272 272 275 273 275 285 293 293 289 288 293 295 293 294 298 300 300 289 302 307 296 301 310 312 311 316 306 298 329 339 346 334 326 322 337 343 343 344 348 345 351 349 3 3 352 345 347 355 351 341 339 335 333 329 321 319 320 326 325 305 309 356 18 27 351 350 358 18 35 41 34 28 26 23 18 10
270 266 255 259 262 272 269 261 269 267 268 278 274 277 278 278 275 276 282 288 293 295 297 299 289 301 306 293 295 293 294 302 302 301 305 309 321 313 320 324 326 332 340 346 345 343 344 344 346 352 354 349 340 343 354 2 13 8 3 324 313 322 323 316 309 312 312 308 306 353 26 22 293 290 296 346 15 26 23 15 14 11 10 10 357
244 262 271 256 262 269 266 269 265 259 264 265 267 267 263 270 278 281 275 251 259 268 281 284 294 297 303 316 327 315 308 301 295 289 286 282 280 284 293 298 300 302 303 303 309 316 323 330 332 338 332 336 344 349 358 338 322 303 306 317 323 292 291 298 300 296 302 305 314 313 310 290 258 251 268 306 304 260 217 324 348 346 350 348 338
264 262 273 276 258 252 250 247 256 272 264 264 258 260 271 268 269 270 272 285 278 282 291 296 296 296 290 298 304 306 298 311 328 317 294 288 287 284 278 276 279 282 289 296 303 306 310 312 317 316 322 324 329 336 330 323 314 301 287 276 277 282 287 284 292 292 299 302 306 304 299 292 279 269 263 263 266 258 253 257 285 319 326 328 329
248 248 250 266 273 270 265 265 262 260 255 251 265 281 273 277 279 271 266 260 254 251 260 270 267 273 279 280 279 243 267 299 318 315 308 305 299 289 280 276 275 277 278 279 281 285 287 293 295 291 289 291 288 282 272 265 259 266 264 264 261 269 272 286 294 297 293 296 297 297 297 295 286 264 257 255 258 260 263 265 270 277 296 315 321
239 242 243 244 245 253 270 272 266 269 263 249 217 235 293 294 285 274 270 269 264 254 248 260 264 263 266 265 262 273 294 293 297 313 319 314 301 294 292 285 280 279 278 282 285 284 283 282 282 281 279 277 275 273 270 265 273 267 266 268 269 272 280 280 284 291 296 288 289 293 296 295 296 286 266 261 260 263 266 269 270 285 299 308 312
232 225 231 237 235 233 238 238 248 253 258 242 238 235 240 240 237 251 272 274 274 278 282 275 269 265 264 267 271 267 262 251 252 291 305 305 298 295 298 299 293 292 289 283 273 269 273 275 281 285 282 280 279 278 277 274 271 269 275 275 278 277 276 281 285 284 287 284 284 285 293 296 300 299 281 273 274 281 277 269 248 268 293 299 304
236 235 236 240 245 243 244 250 256 256 254 239 238 240 239 237 235 235 246 251 250 249 250 262 274 282 287 280 274 265 264 250 248 243 263 279 291 295 276 268 272 281 290 295 299 296 280 274 267 273 280 277 280 285 285 281 279 278 279 281 281 280 280 280 281 276 276 281 286 290 290 291 296 300 298 294 290 285 282 281 278 268 290 301 305
249 249 244 244 247 249 249 250 252 251 249 239 237 236 237 236 233 236 243 243 248 251 253 250 249 257 259 264 269 273 273 268 266 256 253 263 271 273 274 273 274 277 291 311 318 326 313 296 289 280 277 277 279 277 276 279 279 278 273 274 276 279 284 288 282 280 281 285 295 294 288 286 291 294 294 291 284 279 279 281 277 278 279 293 308
248 251 250 247 249 251 249 249 251 250 248 238 240 237 237 235 232 240 246 247 248 250 251 254 260 261 262 265 267 271 272 272 270 261 262 258 265 272 277 276 275 276 275 275 282 285 282 284 283 283 278 276 272 269 270 270 271 276 281 282 280 283 284 285 286 288 287 291 295 293 291 280 281 284 286 282 278 278 279 272 264 260 267 274 289
245 244 247 248 250 253 252 252 253 252 247 238 239 238 236 236 234 249 253 256 255 256 257 256 257 260 260 258 262 267 266 265 257 252 256 260 260 261 264 266 271 270 269 271 280 273 266 263 265 264 265 265 269 277 279 274 272 273 271 275 276 279 277 276 277 278 282 281 276 277 283 283 285 283 279 281 282 285 286 293 288 280 272 269 276
249 247 247 248 249 254 254 251 255 255 249 241 241 241 239 237 244 251 251 253 257 256 258 259 259 259 260 261 260 261 263 262 255 249 247 249 260 258 258 259 263 264 267 268 269 269 270 275 279 279 276 268 265 263 261 266 273 279 278 275 279 280 281 278 277 277 279 278 283 285 284 284 280 276 275 279 285 290 293 290 289 282 269 270 272
250 250 249 250 251 252 251 250 251 255 252 247 245 244 243 239 242 249 251 254 257 260 261 262 264 264 261 258 261 261 259 259 252 249 246 251 259 257 258 258 259 263 266 262 262 262 256 257 256 257 260 259 260 264 267 263 264 278 277 276 269 271 276 279 275 272 271 277 275 273 280 283 279 282 280 283 285 293 289 288 287 285 283 285 276
252 253 254 253 255 258 260 258 256 254 251 249 245 245 245 244 244 250 251 254 256 256 259 262 264 266 268 263 261 262 262 259 254 252 250 253 260 260 263 264 263 261 260 256 258 260 263 262 264 264 266 266 267 265 264 260 257 265 273 272 269 267 268 268 269 266 265 273 271 267 272 279 277 283 282 280 282 284 289 287 286 290 287 285 287